Showing default

DMC 3-FM1, 40715

Orbit data source: Space-Track

DMC 3-FM1, 40715 is a payload satellite owned by DMCii (UK) in SSO that was launched on Fri, 10 Jul 2015 UTC via a PSLV-XL launch vehicle from the Sirharikota (SRI). Payloads include a variety of satellites, spacecraft, and rockets equipped with specific instruments for various scientific and technological missions. These include communications satellites like Starlink; space stations such as the ISS; scientific satellites like the Hubble; Earth observation satellites from companies like Planet Labs, Umbra, and HawkEye 360; GPS; miniature CubeSats for education and research; and military/defense satellites.

Loading next visibility...
DMC 3-FM1 details
Identifier
40715, 2015-032A
Orbit
SSO
Last TLE update7 hours ago
Origin
Flag of UKDMCii (UK)
ManufacturerSSTL (Astrium)
MissionOperational Commercial Imaging
Bus & MotorSSTL-300S1, Unknown motor
Mass447 kg wet, 435 kg dry
Launch date (UTC)
2015-07-10 (9 years ago)
Launch vehicle
PSLV-XL
Launch site
Sirharikota (SRI)
Object type
Payload
Rocket body
Debris
Shape & HBRHept Cyl + Cyl, 2.5 m
Radar Cross Section2.356 m², Large (>1 m²)

Expand to show TLE details & history

TLE from 7 hours ago
0 DMC 3-FM1
1 40715U 15032A   24361.25232730  .00002062  00000-0  25053-3 0  9996
2 40715  97.7219 234.3151 0006553  35.5977 324.5674 14.84549909510064
Epoch: 2024-12-26T06:03Z
Definitive object data (Epoch: 2024-12-26T06:03:21.078Z)
Latitude-0.00003°
Longitude48.24289°
Altitude614.298 km
Speed7.554 km/s
True Right ascension15h 37m 15s
True Declination0° 00' 00"
Sunlit
Object was in daylight at TLE epoch
Visualization TLE readout
Latitude50.60856°
Longitude-122.02021°
Altitude623.459 km
Speed7.552 km/s
Apparent Right ascension02h 16m 05s
Apparent Declination9° 06' 22"
Sunlit
Object is in full shadow
Visualization observer readout
Local Sidereal Time12:27:53
Azimuth326.779° NNW
Elevation-34.954°
Doppler factor1
Orbital elements
Apogee altitude616.607 km
Perigee altitude607.445 km
Semi-major axis6,990.163 km
Eccentricity0.0006553
Inclination97.7219°
RAAN234.3151°
Arg. of periapsis35.5977°
True anomaly324.52384°
Mean anomaly324.5674°
Eccentric anomaly324.54562°
Mean motion3.71375 °/min
BSTAR0.00025053
Orbital period96.94 mins
Loading maneuver chart data...
Loading historical data...
Loading historical data...
Loading historical data...
Loading historical data...
Loading historical data...
Loading historical data...
Loading historical data...

DMC 3-FM1 Visibility forecast

Observer location: undefined°, undefined

Span
Click to sort rows by Start time (UTC) header in descending order
Start Az.
Max El. time (UTC)
Max El. Az.
Max El.
End time (UTC)
End Az.
8 mins2024-12-26 15:52:15.672Z171.142° S2024-12-26 15:56:15.672Z221.543° SW44.006°2024-12-26 16:00:15.672Z344.342° N
4 mins2024-12-27 03:41:15.672Z61.404° ENE2024-12-27 03:43:15.672Z95.801° ESE18.167°2024-12-27 03:45:15.672Z128.928° SE
5 mins2024-12-27 05:17:15.672Z336.253° NNW2024-12-27 05:19:15.672Z288.174° WNW29.412°2024-12-27 05:22:15.672Z229.904° WSW
|